Tracking 18850 objects as of 22-Nov-2017
HD Live streaming from Space Station
objects crossing your sky now

COSMOS 1228

Track COSMOS 1228 now!
10-day predictions
COSMOS 1228 is classified as:


NORAD ID: 12107
Int'l Code: 1980-102A
Perigee: 1,401.0 km
Apogee: 1,470.8 km
Inclination: 74.0 °
Period: 114.4 minutes
Semi major axis: 7806 km
RCS: 0.7206 m2 (medium)
Launch date: December 23, 1980
Source: Commonwealth of Independent States (former USSR) (CIS)
Launch site: PLESETSK MISSILE AND SPACE COMPLEX (PKMTR)
aabbcc
Your satellite tracking list
Your tracking list is empty




NASA's NSSDC Master Catalog

Two Line Element Set (TLE):
1 12107U 80102A   17325.80587727 +.00000010 +00000-0 +15339-3 0  9999
2 12107 073.9962 202.8184 0044720 067.6624 358.3369 12.58598022695898
Source of the keplerian elements: AFSPC